Lid_Strength_Index
0 1 1 0 1 1 1 1 1 1 2 2 2 2 1 2 2 6 10 7 6 1 3 8 10 10 10 12 12 13 16 18 16 16 15 14 14 13 13 13 13 12 11 11 10
-0 -0 0 1 1 1 1 1 2 2 1 1 2 2 2 2 7 9 5 3 1 2 8 10 11 11 12 13 13 14 17 17 15 15 15 14 15 14 14 14 13 13 11 11 10
-0 -0 -0 -0 -0 1 0 1 1 2 1 1 1 1 2 4 10 10 3 1 1 3 8 9 11 11 13 13 14 15 17 15 15 14 14 14 14 14 14 15 13 13 13 11 11
1 -0 -0 -0 -0 -1 -1 -1 1 1 1 1 1 1 2 8 14 9 1 1 2 8 9 10 11 13 14 15 14 16 15 15 13 13 14 15 14 14 14 13 13 13 12 11 12
1 1 0 -0 -1 -1 -1 -1 -1 -1 1 1 2 2 7 12 11 7 1 2 7 9 10 11 12 13 15 14 14 15 15 14 14 14 14 14 14 14 14 13 13 13 13 12 11
2 1 1 0 -1 -1 -1 -1 -1 -1 -1 0 2 3 10 14 7 6 6 8 9 10 11 11 12 12 13 14 14 14 14 14 14 14 14 14 15 15 14 14 14 14 14 13 13
1 2 1 1 -0 -1 -1 -2 -1 -1 -1 0 1 4 11 12 9 6 8 9 9 10 12 11 11 12 13 14 13 14 16 15 15 14 15 15 16 17 14 14 15 15 15 14 13
0 1 1 0 0 -0 -1 -1 -1 -1 -1 -1 0 5 11 7 9 9 9 10 9 9 10 11 11 12 13 13 14 16 16 17 15 15 15 14 17 15 15 15 15 14 16 15 14
-0 0 0 0 -0 -0 -1 -1 -1 -1 -1 -1 3 6 11 6 10 9 9 10 10 10 10 10 11 14 14 16 17 16 18 18 16 15 15 16 16 15 15 14 15 15 16 16 15
0 0 0 0 0 0 -1 -1 -1 -0 0 1 4 8 7 10 9 9 9 9 10 11 12 13 14 17 18 18 19 19 19 18 17 16 16 17 17 15 15 15 15 16 17 17 16
0 0 0 0 0 0 1 1 4 6 4 7 8 7 8 8 7 8 8 10 11 13 16 14 17 19 17 15 15 17 17 18 16 16 16 17 17 16 15 16 16 17 17 17 16
0 -0 -0 -0 0 -0 2 4 4 4 9 5 5 5 7 7 10 9 7 11 13 16 15 17 19 16 15 15 16 17 18 18 16 16 16 18 18 16 15 16 16 17 17 17 17
-0 -0 -0 -1 -0 1 4 5 1 1 8 7 5 6 6 7 9 11 9 10 13 15 16 16 16 14 15 16 17 17 17 18 17 17 17 19 18 18 17 17 17 17 17 17 17
0 -0 0 0 3 3 6 3 1 1 12 11 9 7 6 7 11 7 7 10 13 15 14 15 13 15 16 16 16 18 16 16 17 17 20 18 23 19 18 19 18 17 18 17 17
1 0 0 1 3 5 4 2 2 3 20 10 9 5 6 8 8 9 7 9 13 14 14 16 15 15 16 16 15 16 16 17 17 19 19 20 22 20 19 19 18 18 18 18 17
1 0 -1 1 2 2 2 2 4 13 19 12 9 10 10 8 11 9 9 8 10 13 13 14 13 14 14 15 14 15 16 17 18 18 22 21 20 20 20 18 18 18 18 17 17
-0 -1 -1 -0 5 1 2 5 13 18 10 13 12 11 11 12 13 12 12 13 15 17 17 15 15 14 14 17 15 15 17 22 23 23 23 22 22 18 19 19 19 18 18 18 17
-2 -2 -1 -0 0 1 4 10 18 14 14 10 11 11 13 12 12 13 13 15 12 13 15 17 20 16 15 15 17 17 16 20 23 25 24 21 25 20 20 23 25 22 21 18 17
-2 1 3 1 0 2 10 15 18 13 11 12 11 14 13 12 12 13 14 14 13 12 15 16 16 13 14 14 14 17 18 17 23 25 24 23 22 19 19 21 21 22 18 18 18
1 2 3 1 1 6 11 17 15 10 9 11 14 13 15 14 14 14 15 14 14 11 11 14 19 15 15 13 14 15 15 20 19 24 25 25 26 21 21 21 20 22 18 18 18
2 6 4 1 2 7 15 17 13 8 8 11 13 13 13 15 13 15 14 14 13 13 10 14 16 17 15 17 18 18 18 17 18 20 23 25 23 22 20 19 20 20 18 19 19
4 9 3 1 9 9 18 15 8 10 8 9 9 11 13 12 13 14 14 14 11 11 14 13 16 20 22 21 17 17 17 18 20 23 24 24 21 23 24 27 20 19 18 20 19
6 7 3 2 12 12 13 13 10 10 9 10 11 10 10 12 14 13 14 12 10 12 13 13 17 21 21 17 17 18 18 18 20 21 24 22 21 24 26 23 21 20 21 19 19
6 10 8 5 7 10 12 12 15 9 9 8 9 9 11 12 11 14 13 11 10 11 9 11 15 20 20 20 20 22 20 19 18 22 26 25 24 23 21 19 22 21 21 23 22
6 10 10 15 12 9 9 10 11 12 8 8 14 12 12 14 13 13 13 12 11 10 10 12 17 18 21 20 19 20 18 18 19 18 19 23 23 19 18 20 20 21 25 23 24
7 9 7 11 9 10 10 12 11 11 10 11 12 10 11 13 12 14 12 12 13 11 13 14 18 17 21 20 19 19 19 17 17 23 23 29 27 18 23 31 25 22 23 25 26
3 4 6 8 9 11 10 10 10 10 9 8 9 10 11 10 9 11 10 10 11 12 14 15 17 17 21 21 19 20 22 20 19 18 16 19 16 20 25 26 24 23 23 23 23